Tracking 19846 objects as of 19-Sep-2019
HD Live streaming from Space Station
objects crossing your sky now

PORCUPINE 1

Track PORCUPINE 1 now!
10-day predictions
PORCUPINE 1 is classified as:


NORAD ID: 1272
Int'l Code: 1965-016H
Perigee: 906.6 km
Apogee: 935.5 km
Inclination: 70.1 °
Period: 103.3 minutes
Semi major axis: 7292 km
RCS: 0.248 m2 (medium)
Launch date: March 9, 1965
Source: United States (US)
Launch site: AIR FORCE WESTERN TEST RANGE (AFWTR)
aabbcc
Your satellite tracking list
Your tracking list is empty




NASA's NSSDC Master Catalog

Two Line Element Set (TLE):
1  1272U 65016H   19262.16315162 -.00000055  00000-0 -21517-5 0  9998
2  1272  70.0785  80.2813 0019788 115.4362 244.8794 13.94210201773523
Source of the keplerian elements: AFSPC